Wetterdaten: Freitag, 29.11.2019
Datum Zeit Temp. Auen Feucht Auen Luftdruck Regen Richtung Richtung Windben
29.11.2019 00:00 4,7 C 93 % 1005,6 hPa 0,0 mm W 268 4,8 km/h (1 Bft)
29.11.2019 00:05 4,8 C 93 % 1005,7 hPa 0,0 mm W 269 6,4 km/h (2 Bft)
29.11.2019 00:10 4,8 C 93 % 1005,6 hPa 0,0 mm W 269 4,8 km/h (1 Bft)
29.11.2019 00:15 4,8 C 93 % 1005,6 hPa 0,0 mm W 269 4,8 km/h (1 Bft)
29.11.2019 00:20 4,8 C 93 % 1005,6 hPa 0,0 mm W 269 6,4 km/h (2 Bft)
29.11.2019 00:25 4,9 C 93 % 1005,5 hPa 0,0 mm W 273 6,4 km/h (2 Bft)
29.11.2019 00:30 4,9 C 93 % 1005,5 hPa 0,0 mm W 273 4,8 km/h (1 Bft)
29.11.2019 00:35 5,0 C 93 % 1005,5 hPa 0,0 mm W 273 3,2 km/h (1 Bft)
29.11.2019 00:40 5,0 C 93 % 1005,5 hPa 0,0 mm W 273 0,0 km/h (0 Bft)
29.11.2019 00:45 5,0 C 93 % 1005,4 hPa 0,0 mm W 273 0,0 km/h (0 Bft)
29.11.2019 00:50 5,0 C 93 % 1005,5 hPa 0,0 mm W 273 1,6 km/h (1 Bft)
29.11.2019 00:55 5,0 C 93 % 1005,5 hPa 0,0 mm W 273 4,8 km/h (1 Bft)
29.11.2019 01:00 4,9 C 93 % 1005,6 hPa 0,0 mm O-NO 69 4,8 km/h (1 Bft)
29.11.2019 01:05 4,9 C 93 % 1005,6 hPa 0,0 mm O-NO 69 3,2 km/h (1 Bft)
29.11.2019 01:10 4,8 C 93 % 1005,4 hPa 0,0 mm O-NO 69 0,0 km/h (0 Bft)
29.11.2019 01:15 4,8 C 93 % 1005,4 hPa 0,0 mm O-NO 69 0,0 km/h (0 Bft)
29.11.2019 01:20 4,8 C 93 % 1005,5 hPa 0,0 mm O-NO 69 0,0 km/h (0 Bft)
29.11.2019 01:25 4,7 C 93 % 1005,6 hPa 0,0 mm O-NO 69 0,0 km/h (0 Bft)
29.11.2019 01:30 4,7 C 93 % 1005,6 hPa 0,0 mm O-NO 69 0,0 km/h (0 Bft)
29.11.2019 01:35 4,7 C 93 % 1005,6 hPa 0,0 mm O-NO 69 0,0 km/h (0 Bft)
29.11.2019 01:40 4,7 C 93 % 1005,7 hPa 0,0 mm O-NO 69 1,6 km/h (1 Bft)
29.11.2019 01:45 4,7 C 93 % 1005,8 hPa 0,0 mm O-NO 69 0,0 km/h (0 Bft)
29.11.2019 01:50 4,8 C 93 % 1005,9 hPa 0,0 mm O-NO 69 1,6 km/h (1 Bft)
29.11.2019 01:55 4,8 C 93 % 1006,0 hPa 0,0 mm O-NO 69 0,0 km/h (0 Bft)
29.11.2019 02:00 4,8 C 93 % 1006,0 hPa 0,0 mm O-NO 69 0,0 km/h (0 Bft)
29.11.2019 02:05 4,8 C 93 % 1006,1 hPa 0,0 mm O-NO 69 1,6 km/h (1 Bft)
29.11.2019 02:10 4,8 C 93 % 1006,1 hPa 0,0 mm O-NO 69 0,0 km/h (0 Bft)
29.11.2019 02:15 4,8 C 93 % 1006,2 hPa 0,0 mm O-NO 69 4,8 km/h (1 Bft)
29.11.2019 02:20 4,8 C 93 % 1006,2 hPa 0,0 mm O-NO 69 4,8 km/h (1 Bft)
29.11.2019 02:25 4,8 C 93 % 1006,2 hPa 0,0 mm O-NO 69 3,2 km/h (1 Bft)
29.11.2019 02:30 4,8 C 93 % 1006,2 hPa 0,0 mm O-NO 69 3,2 km/h (1 Bft)
29.11.2019 02:35 4,8 C 93 % 1006,2 hPa 0,0 mm O-NO 69 1,6 km/h (1 Bft)
29.11.2019 02:40 4,8 C 93 % 1006,1 hPa 0,0 mm O-NO 69 1,6 km/h (1 Bft)
29.11.2019 02:45 4,8 C 93 % 1006,1 hPa 0,0 mm O-NO 69 3,2 km/h (1 Bft)
29.11.2019 02:50 4,8 C 94 % 1006,2 hPa 0,0 mm O-NO 69 1,6 km/h (1 Bft)
29.11.2019 02:55 4,8 C 93 % 1006,2 hPa 0,0 mm O-NO 69 0,0 km/h (0 Bft)
29.11.2019 03:00 4,8 C 94 % 1006,2 hPa 0,0 mm O-NO 69 0,0 km/h (0 Bft)
29.11.2019 03:05 4,8 C 94 % 1006,2 hPa 0,0 mm O-NO 69 0,0 km/h (0 Bft)
29.11.2019 03:10 4,8 C 94 % 1006,2 hPa 0,0 mm O-NO 69 0,0 km/h (0 Bft)
29.11.2019 03:15 4,8 C 94 % 1006,2 hPa 0,0 mm O-NO 69 0,0 km/h (0 Bft)
29.11.2019 03:20 4,8 C 94 % 1006,2 hPa 0,0 mm O-NO 69 0,0 km/h (0 Bft)
29.11.2019 03:25 4,8 C 94 % 1006,1 hPa 0,0 mm O-NO 69 0,0 km/h (0 Bft)
29.11.2019 03:30 4,8 C 94 % 1006,1 hPa 0,0 mm O-NO 69 1,6 km/h (1 Bft)
29.11.2019 03:35 4,8 C 94 % 1006,1 hPa 0,0 mm O-NO 69 0,0 km/h (0 Bft)
29.11.2019 03:40 4,8 C 94 % 1006,0 hPa 0,0 mm O-NO 69 0,0 km/h (0 Bft)
29.11.2019 03:45 4,8 C 94 % 1005,9 hPa 0,0 mm O-NO 69 1,6 km/h (1 Bft)
29.11.2019 03:50 4,8 C 94 % 1006,0 hPa 0,0 mm O-NO 69 0,0 km/h (0 Bft)
29.11.2019 03:55 4,8 C 94 % 1006,0 hPa 0,0 mm O-NO 69 4,8 km/h (1 Bft)
29.11.2019 04:00 4,8 C 94 % 1006,1 hPa 0,0 mm O-NO 69 3,2 km/h (1 Bft)
29.11.2019 04:05 4,8 C 94 % 1006,1 hPa 0,0 mm O-NO 69 0,0 km/h (0 Bft)
29.11.2019 04:10 4,8 C 94 % 1006,1 hPa 0,0 mm O-NO 69 0,0 km/h (0 Bft)
29.11.2019 04:15 4,8 C 94 % 1006,1 hPa 0,0 mm O-NO 69 0,0 km/h (0 Bft)
29.11.2019 04:20 4,8 C 94 % 1006,0 hPa 0,0 mm O-NO 69 0,0 km/h (0 Bft)
29.11.2019 04:25 4,8 C 94 % 1006,0 hPa 0,0 mm O-NO 69 0,0 km/h (0 Bft)
29.11.2019 04:30 4,8 C 94 % 1005,9 hPa 0,0 mm O-NO 69 0,0 km/h (0 Bft)
29.11.2019 04:35 4,9 C 94 % 1006,0 hPa 0,0 mm O-NO 69 0,0 km/h (0 Bft)
29.11.2019 04:40 4,9 C 94 % 1005,9 hPa 0,0 mm O 82 0,0 km/h (0 Bft)
29.11.2019 04:45 4,9 C 94 % 1006,0 hPa 0,0 mm O-SO 112 0,0 km/h (0 Bft)
29.11.2019 04:50 4,9 C 94 % 1005,8 hPa 0,0 mm O-SO 112 0,0 km/h (0 Bft)
29.11.2019 04:55 4,9 C 94 % 1005,9 hPa 0,0 mm O-SO 112 0,0 km/h (0 Bft)
29.11.2019 05:00 5,0 C 94 % 1005,9 hPa 0,0 mm O-SO 110 0,0 km/h (0 Bft)
29.11.2019 05:05 5,1 C 94 % 1006,1 hPa 0,0 mm O-SO 110 0,0 km/h (0 Bft)
29.11.2019 05:10 5,1 C 94 % 1006,2 hPa 0,0 mm O-SO 110 0,0 km/h (0 Bft)
29.11.2019 05:15 5,1 C 94 % 1006,3 hPa 0,0 mm W 273 4,8 km/h (1 Bft)
29.11.2019 05:20 5,1 C 94 % 1006,2 hPa 0,0 mm W 271 4,8 km/h (1 Bft)
29.11.2019 05:25 5,1 C 94 % 1006,1 hPa 0,2 mm W 271 1,6 km/h (1 Bft)
29.11.2019 05:30 5,1 C 94 % 1006,2 hPa 0,0 mm W 271 0,0 km/h (0 Bft)
29.11.2019 05:35 5,1 C 94 % 1006,4 hPa 0,0 mm W 271 4,8 km/h (1 Bft)
29.11.2019 05:40 5,1 C 94 % 1006,6 hPa 0,0 mm W 271 3,2 km/h (1 Bft)
29.11.2019 05:45 5,2 C 94 % 1006,7 hPa 0,2 mm W 271 6,4 km/h (2 Bft)
29.11.2019 05:50 5,2 C 94 % 1006,3 hPa 0,4 mm W 278 17,7 km/h (3 Bft)
29.11.2019 05:55 5,4 C 94 % 1006,3 hPa 0,2 mm W 271 14,5 km/h (3 Bft)
29.11.2019 06:00 5,5 C 94 % 1006,5 hPa 0,0 mm W 273 11,3 km/h (2 Bft)
29.11.2019 06:05 5,5 C 94 % 1006,4 hPa 0,2 mm W 265 8,0 km/h (2 Bft)
29.11.2019 06:10 5,6 C 94 % 1006,5 hPa 0,0 mm W 265 4,8 km/h (1 Bft)
29.11.2019 06:15 5,6 C 94 % 1006,7 hPa 0,0 mm W 265 6,4 km/h (2 Bft)
29.11.2019 06:20 5,6 C 94 % 1006,6 hPa 0,2 mm W 265 4,8 km/h (1 Bft)
29.11.2019 06:25 5,6 C 94 % 1006,5 hPa 0,2 mm W 265 0,0 km/h (0 Bft)
29.11.2019 06:30 5,6 C 94 % 1006,6 hPa 0,0 mm W 265 0,0 km/h (0 Bft)
29.11.2019 06:35 5,6 C 94 % 1006,7 hPa 0,0 mm W 265 0,0 km/h (0 Bft)
29.11.2019 06:40 5,6 C 94 % 1006,7 hPa 0,0 mm W 265 0,0 km/h (0 Bft)
29.11.2019 06:45 5,6 C 94 % 1006,7 hPa 0,2 mm W 265 0,0 km/h (0 Bft)
29.11.2019 06:50 5,6 C 94 % 1006,7 hPa 0,0 mm W 265 0,0 km/h (0 Bft)
29.11.2019 06:55 5,6 C 94 % 1006,7 hPa 0,0 mm W 265 0,0 km/h (0 Bft)
29.11.2019 07:00 5,6 C 94 % 1006,8 hPa 0,0 mm W 265 0,0 km/h (0 Bft)
29.11.2019 07:05 5,6 C 94 % 1006,7 hPa 0,0 mm W 265 1,6 km/h (1 Bft)
29.11.2019 07:10 5,6 C 94 % 1006,7 hPa 0,0 mm W 265 1,6 km/h (1 Bft)
29.11.2019 07:15 5,6 C 94 % 1006,8 hPa 0,0 mm W 265 4,8 km/h (1 Bft)
29.11.2019 07:20 5,6 C 94 % 1006,8 hPa 0,0 mm W 265 3,2 km/h (1 Bft)
29.11.2019 07:25 5,6 C 94 % 1006,8 hPa 0,0 mm W 265 4,8 km/h (1 Bft)
29.11.2019 07:30 5,6 C 94 % 1006,8 hPa 0,0 mm W 265 0,0 km/h (0 Bft)
29.11.2019 07:35 5,6 C 94 % 1006,8 hPa 0,0 mm W 265 3,2 km/h (1 Bft)
29.11.2019 07:40 5,6 C 94 % 1006,8 hPa 0,2 mm W 265 1,6 km/h (1 Bft)
29.11.2019 07:45 5,6 C 94 % 1006,8 hPa 0,0 mm W 265 0,0 km/h (0 Bft)
29.11.2019 07:50 5,6 C 94 % 1006,8 hPa 0,0 mm W 265 0,0 km/h (0 Bft)
29.11.2019 07:55 5,6 C 94 % 1006,9 hPa 0,0 mm W 265 0,0 km/h (0 Bft)
29.11.2019 08:00 5,6 C 94 % 1006,9 hPa 0,0 mm W 265 0,0 km/h (0 Bft)
29.11.2019 08:05 5,6 C 94 % 1006,9 hPa 0,0 mm W 265 0,0 km/h (0 Bft)
29.11.2019 08:10 5,6 C 94 % 1007,0 hPa 0,0 mm W 265 0,0 km/h (0 Bft)
29.11.2019 08:15 5,6 C 94 % 1007,0 hPa 0,0 mm W 265 0,0 km/h (0 Bft)
29.11.2019 08:20 5,6 C 94 % 1007,0 hPa 0,0 mm W 265 0,0 km/h (0 Bft)
29.11.2019 08:25 5,6 C 94 % 1007,1 hPa 0,0 mm W 265 0,0 km/h (0 Bft)
29.11.2019 08:30 5,6 C 94 % 1007,2 hPa 0,0 mm W 265 0,0 km/h (0 Bft)
29.11.2019 08:35 5,6 C 94 % 1007,3 hPa 0,0 mm W 265 3,2 km/h (1 Bft)
29.11.2019 08:40 5,6 C 94 % 1007,2 hPa 0,0 mm W 265 0,0 km/h (0 Bft)
29.11.2019 08:45 5,7 C 94 % 1007,2 hPa 0,0 mm W 265 0,0 km/h (0 Bft)
29.11.2019 08:50 5,7 C 94 % 1007,2 hPa 0,0 mm W 265 0,0 km/h (0 Bft)
29.11.2019 08:55 5,7 C 94 % 1007,3 hPa 0,0 mm W 265 0,0 km/h (0 Bft)
29.11.2019 09:00 5,7 C 94 % 1007,3 hPa 0,0 mm W 265 0,0 km/h (0 Bft)
29.11.2019 09:05 5,7 C 94 % 1007,5 hPa 0,2 mm W 265 0,0 km/h (0 Bft)
29.11.2019 09:10 5,8 C 94 % 1007,4 hPa 0,0 mm W 265 0,0 km/h (0 Bft)
29.11.2019 09:15 5,8 C 94 % 1007,5 hPa 0,0 mm W 265 1,6 km/h (1 Bft)
29.11.2019 09:20 5,8 C 94 % 1007,6 hPa 0,0 mm W 265 0,0 km/h (0 Bft)
29.11.2019 09:25 5,9 C 94 % 1007,5 hPa 0,2 mm W 265 0,0 km/h (0 Bft)
29.11.2019 09:30 5,9 C 94 % 1007,6 hPa 0,0 mm W 265 0,0 km/h (0 Bft)
29.11.2019 09:35 5,9 C 94 % 1007,6 hPa 0,0 mm W 265 0,0 km/h (0 Bft)
29.11.2019 09:40 5,9 C 94 % 1007,7 hPa 0,0 mm W 265 0,0 km/h (0 Bft)
29.11.2019 09:45 5,9 C 94 % 1007,8 hPa 0,0 mm W 265 0,0 km/h (0 Bft)
29.11.2019 09:50 5,9 C 94 % 1007,8 hPa 0,0 mm W 265 0,0 km/h (0 Bft)
29.11.2019 09:55 6,0 C 94 % 1007,9 hPa 0,0 mm W 265 0,0 km/h (0 Bft)
29.11.2019 10:00 6,1 C 94 % 1007,9 hPa 0,0 mm W 265 0,0 km/h (0 Bft)
29.11.2019 10:05 6,1 C 94 % 1008,0 hPa 0,0 mm W 265 0,0 km/h (0 Bft)
29.11.2019 10:10 6,1 C 94 % 1008,0 hPa 0,0 mm W 265 0,0 km/h (0 Bft)
29.11.2019 10:15 6,2 C 94 % 1008,2 hPa 0,0 mm W 265 0,0 km/h (0 Bft)
29.11.2019 10:20 6,2 C 94 % 1008,3 hPa 0,0 mm W 265 0,0 km/h (0 Bft)
29.11.2019 10:25 6,3 C 94 % 1008,4 hPa 0,0 mm W 265 0,0 km/h (0 Bft)
29.11.2019 10:30 6,4 C 94 % 1008,4 hPa 0,0 mm W 265 0,0 km/h (0 Bft)
29.11.2019 10:35 6,4 C 94 % 1008,5 hPa 0,0 mm W 265 0,0 km/h (0 Bft)
29.11.2019 10:40 6,5 C 94 % 1008,5 hPa 0,2 mm W 259 8,0 km/h (2 Bft)
29.11.2019 10:45 6,5 C 94 % 1008,4 hPa 0,0 mm W 270 8,0 km/h (2 Bft)
29.11.2019 10:50 6,6 C 94 % 1008,3 hPa 0,0 mm W 279 19,3 km/h (3 Bft)
29.11.2019 10:55 6,6 C 94 % 1008,5 hPa 0,0 mm W 259 11,3 km/h (2 Bft)
29.11.2019 11:00 6,7 C 94 % 1008,5 hPa 0,0 mm W 271 11,3 km/h (2 Bft)
29.11.2019 11:05 6,7 C 94 % 1008,5 hPa 0,0 mm W 265 11,3 km/h (2 Bft)
29.11.2019 11:10 6,7 C 94 % 1008,5 hPa 0,0 mm W 269 12,9 km/h (3 Bft)
29.11.2019 11:15 6,8 C 94 % 1008,5 hPa 0,0 mm W 263 14,5 km/h (3 Bft)
29.11.2019 11:20 6,8 C 94 % 1008,5 hPa 0,0 mm W 261 11,3 km/h (2 Bft)
29.11.2019 11:25 6,8 C 94 % 1008,5 hPa 0,0 mm W-NW 282 14,5 km/h (3 Bft)
29.11.2019 11:30 6,9 C 94 % 1008,5 hPa 0,0 mm W 270 11,3 km/h (2 Bft)
29.11.2019 11:35 6,9 C 94 % 1008,4 hPa 0,0 mm W 271 11,3 km/h (2 Bft)
29.11.2019 11:40 6,9 C 94 % 1008,5 hPa 0,0 mm W-NW 286 11,3 km/h (2 Bft)
29.11.2019 11:45 6,9 C 94 % 1008,4 hPa 0,0 mm W-NW 286 12,9 km/h (3 Bft)
29.11.2019 11:50 7,0 C 94 % 1008,4 hPa 0,0 mm W 263 16,1 km/h (3 Bft)
29.11.2019 11:55 7,1 C 94 % 1008,3 hPa 0,0 mm W 263 16,1 km/h (3 Bft)
29.11.2019 12:00 7,1 C 94 % 1008,5 hPa 0,0 mm W 269 16,1 km/h (3 Bft)
29.11.2019 12:05 7,2 C 94 % 1008,4 hPa 0,0 mm W 273 12,9 km/h (3 Bft)
29.11.2019 12:10 7,2 C 94 % 1008,4 hPa 0,0 mm W 269 12,9 km/h (3 Bft)
29.11.2019 12:15 7,2 C 94 % 1008,4 hPa 0,0 mm W 266 12,9 km/h (3 Bft)
29.11.2019 12:20 7,2 C 94 % 1008,4 hPa 0,0 mm W 275 11,3 km/h (2 Bft)
29.11.2019 12:25 7,3 C 94 % 1008,5 hPa 0,0 mm W 277 12,9 km/h (3 Bft)
29.11.2019 12:30 7,4 C 94 % 1008,5 hPa 0,0 mm W 274 9,7 km/h (2 Bft)
29.11.2019 12:35 7,4 C 94 % 1008,5 hPa 0,0 mm W 263 12,9 km/h (3 Bft)
29.11.2019 12:40 7,5 C 94 % 1008,6 hPa 0,0 mm W-SW 258 9,7 km/h (2 Bft)
29.11.2019 12:45 7,6 C 94 % 1008,5 hPa 0,0 mm W-NW 289 17,7 km/h (3 Bft)
29.11.2019 12:50 7,6 C 94 % 1008,5 hPa 0,0 mm W 276 16,1 km/h (3 Bft)
29.11.2019 12:55 7,6 C 93 % 1008,5 hPa 0,0 mm W 274 22,5 km/h (4 Bft)
29.11.2019 13:00 7,7 C 93 % 1008,5 hPa 0,0 mm W 265 16,1 km/h (3 Bft)
29.11.2019 13:05 7,7 C 93 % 1008,5 hPa 0,0 mm W-NW 286 17,7 km/h (3 Bft)
29.11.2019 13:10 7,7 C 93 % 1008,5 hPa 0,0 mm W 264 14,5 km/h (3 Bft)
29.11.2019 13:15 7,7 C 93 % 1008,5 hPa 0,0 mm W 264 12,9 km/h (3 Bft)
29.11.2019 13:20 7,8 C 93 % 1008,5 hPa 0,0 mm W 279 12,9 km/h (3 Bft)
29.11.2019 13:25 7,8 C 93 % 1008,5 hPa 0,0 mm W 261 11,3 km/h (2 Bft)
29.11.2019 13:30 7,8 C 92 % 1008,5 hPa 0,0 mm W 267 9,7 km/h (2 Bft)
29.11.2019 13:35 7,8 C 92 % 1008,5 hPa 0,0 mm W 276 20,9 km/h (4 Bft)
29.11.2019 13:40 7,8 C 92 % 1008,5 hPa 0,0 mm W 268 17,7 km/h (3 Bft)
29.11.2019 13:45 7,8 C 91 % 1008,6 hPa 0,0 mm W 265 19,3 km/h (3 Bft)
29.11.2019 13:50 7,8 C 91 % 1008,7 hPa 0,0 mm W 269 12,9 km/h (3 Bft)
29.11.2019 13:55 7,7 C 91 % 1008,8 hPa 0,0 mm W-SW 244 20,9 km/h (4 Bft)
29.11.2019 14:00 7,7 C 91 % 1008,8 hPa 0,0 mm W 259 24,1 km/h (4 Bft)
29.11.2019 14:05 7,7 C 90 % 1008,9 hPa 0,0 mm W 276 22,5 km/h (4 Bft)
29.11.2019 14:10 7,7 C 90 % 1008,9 hPa 0,0 mm W 275 20,9 km/h (4 Bft)
29.11.2019 14:15 7,7 C 90 % 1009,0 hPa 0,0 mm W-SW 242 24,1 km/h (4 Bft)
29.11.2019 14:20 7,7 C 90 % 1009,1 hPa 0,0 mm W 272 17,7 km/h (3 Bft)
29.11.2019 14:25 7,7 C 89 % 1009,1 hPa 0,0 mm W-SW 253 22,5 km/h (4 Bft)
29.11.2019 14:30 7,6 C 89 % 1009,1 hPa 0,0 mm W 268 27,4 km/h (4 Bft)
29.11.2019 14:35 7,6 C 89 % 1009,1 hPa 0,0 mm W 275 32,2 km/h (5 Bft)
29.11.2019 14:40 7,5 C 88 % 1009,2 hPa 0,0 mm W 275 25,7 km/h (4 Bft)
29.11.2019 14:45 7,5 C 88 % 1009,3 hPa 0,0 mm W 267 27,4 km/h (4 Bft)
29.11.2019 14:50 7,5 C 87 % 1009,4 hPa 0,0 mm W 278 27,4 km/h (4 Bft)
29.11.2019 14:55 7,5 C 87 % 1009,4 hPa 0,0 mm W 273 29,0 km/h (5 Bft)
29.11.2019 15:00 7,4 C 86 % 1009,5 hPa 0,0 mm W-SW 255 30,6 km/h (5 Bft)
29.11.2019 15:05 7,5 C 86 % 1009,6 hPa 0,0 mm W 270 25,7 km/h (4 Bft)
29.11.2019 15:10 7,5 C 86 % 1009,8 hPa 0,0 mm W 275 29,0 km/h (5 Bft)
29.11.2019 15:15 7,5 C 86 % 1009,8 hPa 0,0 mm W 260 20,9 km/h (4 Bft)
29.11.2019 15:20 7,4 C 85 % 1009,9 hPa 0,0 mm W 278 32,2 km/h (5 Bft)
29.11.2019 15:25 7,4 C 85 % 1010,0 hPa 0,0 mm W 261 29,0 km/h (5 Bft)
29.11.2019 15:30 7,4 C 85 % 1010,1 hPa 0,0 mm W-NW 283 25,7 km/h (4 Bft)
29.11.2019 15:35 7,3 C 85 % 1010,1 hPa 0,0 mm W-SW 242 29,0 km/h (5 Bft)
29.11.2019 15:40 7,3 C 85 % 1010,3 hPa 0,0 mm W 261 30,6 km/h (5 Bft)
29.11.2019 15:45 7,2 C 85 % 1010,4 hPa 0,0 mm W 267 24,1 km/h (4 Bft)
29.11.2019 15:50 7,2 C 85 % 1010,4 hPa 0,0 mm W 273 29,0 km/h (5 Bft)
29.11.2019 15:55 7,1 C 85 % 1010,6 hPa 0,0 mm W 276 27,4 km/h (4 Bft)
29.11.2019 16:00 7,1 C 85 % 1010,6 hPa 0,0 mm W 269 20,9 km/h (4 Bft)
29.11.2019 16:05 7,0 C 85 % 1010,6 hPa 0,0 mm W 275 27,4 km/h (4 Bft)
29.11.2019 16:10 7,0 C 85 % 1010,8 hPa 0,0 mm W 275 20,9 km/h (4 Bft)
29.11.2019 16:15 6,9 C 85 % 1010,8 hPa 0,0 mm W 266 25,7 km/h (4 Bft)
29.11.2019 16:20 6,9 C 85 % 1011,0 hPa 0,0 mm W 267 27,4 km/h (4 Bft)
29.11.2019 16:25 6,8 C 85 % 1011,1 hPa 0,2 mm W 276 19,3 km/h (3 Bft)
29.11.2019 16:30 6,7 C 86 % 1011,2 hPa 0,0 mm W 281 25,7 km/h (4 Bft)
29.11.2019 16:35 6,7 C 86 % 1011,2 hPa 0,0 mm W 267 29,0 km/h (5 Bft)
29.11.2019 16:40 6,6 C 87 % 1011,3 hPa 0,0 mm W 281 24,1 km/h (4 Bft)
29.11.2019 16:45 6,5 C 87 % 1011,3 hPa 0,0 mm W 263 32,2 km/h (5 Bft)
29.11.2019 16:50 6,4 C 87 % 1011,3 hPa 0,0 mm W-SW 240 22,5 km/h (4 Bft)
29.11.2019 16:55 6,4 C 88 % 1011,3 hPa 0,0 mm W 261 27,4 km/h (4 Bft)
29.11.2019 17:00 6,3 C 88 % 1011,2 hPa 0,0 mm W 269 19,3 km/h (3 Bft)
29.11.2019 17:05 6,3 C 88 % 1011,4 hPa 0,0 mm W-SW 250 29,0 km/h (5 Bft)
29.11.2019 17:10 6,3 C 88 % 1011,4 hPa 0,0 mm W 263 24,1 km/h (4 Bft)
29.11.2019 17:15 6,3 C 88 % 1011,7 hPa 0,0 mm W 261 24,1 km/h (4 Bft)
29.11.2019 17:20 6,3 C 88 % 1011,8 hPa 0,0 mm W 274 22,5 km/h (4 Bft)
29.11.2019 17:25 6,4 C 88 % 1012,0 hPa 0,2 mm W-SW 246 20,9 km/h (4 Bft)
29.11.2019 17:30 6,4 C 88 % 1012,1 hPa 0,2 mm W-SW 248 24,1 km/h (4 Bft)
29.11.2019 17:35 6,3 C 88 % 1012,2 hPa 0,0 mm W 259 24,1 km/h (4 Bft)
29.11.2019 17:40 6,3 C 88 % 1012,3 hPa 0,2 mm W 271 22,5 km/h (4 Bft)
29.11.2019 17:45 6,2 C 89 % 1012,4 hPa 0,2 mm W 261 22,5 km/h (4 Bft)
29.11.2019 17:50 6,2 C 89 % 1012,6 hPa 0,0 mm W-NW 290 24,1 km/h (4 Bft)
29.11.2019 17:55 6,1 C 89 % 1012,6 hPa 0,2 mm W-SW 238 27,4 km/h (4 Bft)
29.11.2019 18:00 6,0 C 90 % 1012,8 hPa 0,2 mm W 281 19,3 km/h (3 Bft)
29.11.2019 18:05 5,9 C 90 % 1012,8 hPa 0,2 mm W 277 17,7 km/h (3 Bft)
29.11.2019 18:10 5,8 C 90 % 1012,9 hPa 0,2 mm W 274 19,3 km/h (3 Bft)
29.11.2019 18:15 5,8 C 90 % 1013,1 hPa 0,2 mm W-SW 248 20,9 km/h (4 Bft)
29.11.2019 18:20 5,7 C 90 % 1013,1 hPa 0,2 mm W 272 17,7 km/h (3 Bft)
29.11.2019 18:25 5,7 C 90 % 1013,2 hPa 0,2 mm W 270 11,3 km/h (2 Bft)
29.11.2019 18:30 5,6 C 91 % 1013,1 hPa 0,0 mm W-SW 248 17,7 km/h (3 Bft)
29.11.2019 18:35 5,6 C 91 % 1013,3 hPa 0,0 mm W 263 22,5 km/h (4 Bft)
29.11.2019 18:40 5,6 C 91 % 1013,3 hPa 0,0 mm W-SW 253 11,3 km/h (2 Bft)
29.11.2019 18:45 5,6 C 91 % 1013,3 hPa 0,2 mm W 281 9,7 km/h (2 Bft)
29.11.2019 18:50 5,6 C 91 % 1013,3 hPa 0,0 mm W 273 16,1 km/h (3 Bft)
29.11.2019 18:55 5,6 C 92 % 1013,4 hPa 0,0 mm W-NW 297 14,5 km/h (3 Bft)
29.11.2019 19:00 5,6 C 92 % 1013,5 hPa 0,0 mm W-NW 283 16,1 km/h (3 Bft)
29.11.2019 19:05 5,5 C 92 % 1013,7 hPa 0,0 mm W-SW 255 16,1 km/h (3 Bft)
29.11.2019 19:10 5,4 C 92 % 1013,8 hPa 0,2 mm W-SW 256 16,1 km/h (3 Bft)
29.11.2019 19:15 5,3 C 92 % 1013,9 hPa 0,2 mm W 274 14,5 km/h (3 Bft)
29.11.2019 19:20 5,2 C 92 % 1014,0 hPa 0,0 mm W 259 12,9 km/h (3 Bft)
29.11.2019 19:25 5,1 C 92 % 1014,0 hPa 0,2 mm W 268 16,1 km/h (3 Bft)
29.11.2019 19:30 5,1 C 92 % 1014,1 hPa 0,2 mm W 265 8,0 km/h (2 Bft)
29.11.2019 19:35 5,0 C 92 % 1014,1 hPa 0,0 mm W 275 9,7 km/h (2 Bft)
29.11.2019 19:40 4,9 C 92 % 1014,2 hPa 0,2 mm W 275 12,9 km/h (3 Bft)
29.11.2019 19:45 4,9 C 92 % 1014,3 hPa 0,2 mm W 262 14,5 km/h (3 Bft)
29.11.2019 19:50 4,8 C 92 % 1014,3 hPa 0,0 mm W 267 11,3 km/h (2 Bft)
29.11.2019 19:55 4,8 C 92 % 1014,3 hPa 0,0 mm W 259 14,5 km/h (3 Bft)
29.11.2019 20:00 4,8 C 92 % 1014,4 hPa 0,2 mm W-NW 283 9,7 km/h (2 Bft)
29.11.2019 20:05 4,7 C 93 % 1014,5 hPa 0,0 mm W 279 9,7 km/h (2 Bft)
29.11.2019 20:10 4,7 C 93 % 1014,6 hPa 0,0 mm W 273 12,9 km/h (3 Bft)
29.11.2019 20:15 4,7 C 92 % 1014,6 hPa 0,2 mm W 259 12,9 km/h (3 Bft)
29.11.2019 20:20 4,7 C 93 % 1014,8 hPa 0,0 mm W 260 11,3 km/h (2 Bft)
29.11.2019 20:25 4,6 C 93 % 1014,9 hPa 0,2 mm W 271 11,3 km/h (2 Bft)
29.11.2019 20:30 4,6 C 93 % 1015,0 hPa 0,2 mm W 273 14,5 km/h (3 Bft)
29.11.2019 20:35 4,6 C 93 % 1015,3 hPa 0,2 mm W 277 12,9 km/h (3 Bft)
29.11.2019 20:40 4,5 C 93 % 1015,5 hPa 0,0 mm N 355 11,3 km/h (2 Bft)
29.11.2019 20:45 4,2 C 92 % 1015,7 hPa 0,0 mm W 268 11,3 km/h (2 Bft)
29.11.2019 20:50 4,0 C 93 % 1015,9 hPa 0,2 mm W-NW 286 11,3 km/h (2 Bft)
29.11.2019 20:55 3,8 C 92 % 1016,2 hPa 0,0 mm W 265 11,3 km/h (2 Bft)
29.11.2019 21:00 3,6 C 92 % 1016,3 hPa 0,0 mm W 267 17,7 km/h (3 Bft)
29.11.2019 21:05 3,3 C 92 % 1016,5 hPa 0,2 mm W 278 12,9 km/h (3 Bft)
29.11.2019 21:10 3,1 C 92 % 1016,6 hPa 0,0 mm W 281 9,7 km/h (2 Bft)
29.11.2019 21:15 2,9 C 92 % 1016,8 hPa 0,2 mm W 277 9,7 km/h (2 Bft)
29.11.2019 21:20 2,8 C 92 % 1016,9 hPa 0,2 mm W-NW 287 6,4 km/h (2 Bft)
29.11.2019 21:25 2,6 C 92 % 1016,9 hPa 0,0 mm W 279 6,4 km/h (2 Bft)
29.11.2019 21:30 2,4 C 92 % 1017,0 hPa 0,2 mm W 261 9,7 km/h (2 Bft)
29.11.2019 21:35 2,3 C 92 % 1017,0 hPa 0,0 mm W-NW 294 9,7 km/h (2 Bft)
29.11.2019 21:40 2,2 C 92 % 1017,1 hPa 0,2 mm W 265 8,0 km/h (2 Bft)
29.11.2019 21:45 2,1 C 92 % 1017,3 hPa 0,0 mm W 271 6,4 km/h (2 Bft)
29.11.2019 21:50 2,0 C 92 % 1017,3 hPa 0,2 mm W 262 8,0 km/h (2 Bft)
29.11.2019 21:55 1,9 C 92 % 1017,3 hPa 0,0 mm W 262 8,0 km/h (2 Bft)
29.11.2019 22:00 1,8 C 92 % 1017,3 hPa 0,0 mm W 261 6,4 km/h (2 Bft)
29.11.2019 22:05 1,7 C 92 % 1017,3 hPa 0,2 mm W 261 6,4 km/h (2 Bft)
29.11.2019 22:10 1,7 C 93 % 1017,4 hPa 0,0 mm W 261 4,8 km/h (1 Bft)
29.11.2019 22:15 1,7 C 93 % 1017,5 hPa 0,0 mm W 262 4,8 km/h (1 Bft)
29.11.2019 22:20 1,7 C 93 % 1017,6 hPa 0,2 mm W 262 4,8 km/h (1 Bft)
29.11.2019 22:25 1,6 C 93 % 1017,7 hPa 0,0 mm W 262 1,6 km/h (1 Bft)
29.11.2019 22:30 1,6 C 93 % 1017,7 hPa 0,0 mm W 262 1,6 km/h (1 Bft)
29.11.2019 22:35 1,5 C 93 % 1017,7 hPa 0,2 mm W 262 3,2 km/h (1 Bft)
29.11.2019 22:40 1,5 C 93 % 1017,7 hPa 0,0 mm W 262 3,2 km/h (1 Bft)
29.11.2019 22:45 1,4 C 93 % 1017,8 hPa 0,0 mm W 262 1,6 km/h (1 Bft)
29.11.2019 22:50 1,4 C 93 % 1017,9 hPa 0,0 mm W 262 1,6 km/h (1 Bft)
29.11.2019 22:55 1,3 C 93 % 1018,0 hPa 0,0 mm W 262 1,6 km/h (1 Bft)
29.11.2019 23:00 1,3 C 93 % 1018,1 hPa 0,0 mm W 262 1,6 km/h (1 Bft)
29.11.2019 23:05 1,2 C 93 % 1018,2 hPa 0,0 mm W 262 0,0 km/h (0 Bft)
29.11.2019 23:10 1,2 C 93 % 1018,3 hPa 0,0 mm W 262 0,0 km/h (0 Bft)
29.11.2019 23:15 1,2 C 93 % 1018,3 hPa 0,0 mm W 262 1,6 km/h (1 Bft)
29.11.2019 23:20 1,2 C 93 % 1018,4 hPa 0,2 mm W 262 3,2 km/h (1 Bft)
29.11.2019 23:25 1,2 C 93 % 1018,4 hPa 0,0 mm W 262 4,8 km/h (1 Bft)
29.11.2019 23:30 1,2 C 93 % 1018,5 hPa 0,0 mm W 262 3,2 km/h (1 Bft)
29.11.2019 23:35 1,2 C 93 % 1018,6 hPa 0,2 mm W 262 1,6 km/h (1 Bft)
29.11.2019 23:40 1,3 C 93 % 1018,7 hPa 0,0 mm W 262 1,6 km/h (1 Bft)
29.11.2019 23:45 1,3 C 93 % 1018,8 hPa 0,0 mm W 262 4,8 km/h (1 Bft)
29.11.2019 23:50 1,3 C 93 % 1018,9 hPa 0,0 mm W 277 8,0 km/h (2 Bft)
29.11.2019 23:55 1,4 C 93 % 1019,0 hPa 0,0 mm W 276 6,4 km/h (2 Bft)
_ Min-Zeit 23:05 15:20 00:45 - - - 00:40
Minimum _ 1,2 C 85 % 1005,4 hPa - - - 0,0 km/h (0 Bft)
_ Max-Zeit 13:20 02:50 23:55 05:50 - - 14:35
Maximum _ 7,8 C 94 % 1019,0 hPa 0,4 mm - - 32,2 km/h
W (5 Bft)
Durchschnitt _ 5,4 C 92 % 1009,8 hPa #9,8 mm W - 9,3 km/h (2 Bft)